DW4252 Weather Reports


Display with metric or nautical units.
time (UTC)temp
F
wind
direction
speed
MPH
gust
MPH
rain 1hr
in
rain 24hr
in
rain mn
in
humidity
%
barometer
mb
20260507043004 48 45 2.0 3.0 0.00 0.00 0.00 84 1015.6
20260507042004 48 45 2.0 3.0 0.00 0.00 0.00 84 1015.5
20260507041004 48 45 2.0 3.0 0.00 0.00 0.00 84 1015.4
20260507040005 48 47 1.0 2.0 0.00 0.00 0.00 84 1015.4
20260507035004 48 56 1.0 2.0 0.00 0.00 0.00 84 1015.5
20260507034004 48 60 1.0 2.0 0.00 0.00 0.00 84 1015.6
20260507032004 48 68 1.0 2.0 0.00 0.00 0.00 84 1015.7
20260507031004 48 57 1.0 2.0 0.00 0.00 0.00 83 1015.5
20260507030004 48 0 0.0 0.0 0.00 0.00 0.00 83 1015.6
20260507025005 48 0 0.0 0.0 0.00 0.00 0.00 83 1015.5
20260507023004 48 0 0.0 0.0 0.00 0.00 0.00 82 1015.3
20260507022004 48 90 0.0 1.0 0.00 0.00 0.00 81 1015.3
20260507021004 49 270 0.0 1.0 0.00 0.00 0.00 81 1015.2
20260507020005 49 0 0.0 0.0 0.00 0.00 0.00 80 1015.1
20260507015005 49 270 0.0 2.0 0.00 0.00 0.00 80 1015.1
20260507014004 49 274 1.0 2.0 0.00 0.00 0.00 80 1015.2
20260507013004 49 303 2.0 3.0 0.00 0.00 0.00 79 1015.2
20260507012004 49 28 1.0 2.0 0.00 0.00 0.00 79 1015.3
20260507010005 50 36 1.0 2.0 0.00 0.00 0.00 78 1015.2
20260507005004 50 26 1.0 2.0 0.00 0.00 0.00 78 1015.1
20260507004005 50 28 1.0 2.0 0.00 0.00 0.00 78 1015.1
20260507003005 50 36 1.0 2.0 0.00 0.00 0.00 78 1015.1
20260507002005 50 58 1.0 2.0 0.00 0.00 0.00 77 1014.9
20260507000005 50 71 2.0 3.0 0.00 0.00 0.00 77 1015.0
20260506235004 50 74 2.0 4.0 0.00 0.00 0.00 76 1015.0
20260506234004 50 70 2.0 4.0 0.00 0.00 0.00 76 1015.1
20260506233004 50 61 2.0 4.0 0.00 0.00 0.00 76 1015.1
20260506232004 51 45 1.0 3.0 0.00 0.00 0.00 76 1015.1
20260506231004 51 0 0.0 0.0 0.00 0.00 0.00 75 1015.1
20260506230012 51 0 0.0 0.0 0.00 0.00 0.00 75 1015.0
20260506225004 51 51 0.0 1.0 0.00 0.00 0.00 75 1015.0
20260506224004 51 51 0.0 1.0 0.00 0.00 0.00 74 1015.0
20260506223004 51 53 1.0 2.0 0.00 0.00 0.00 74 1015.0
20260506222005 51 60 2.0 3.0 0.00 0.00 0.00 74 1014.9
20260506221005 51 68 2.0 3.0 0.00 0.00 0.00 74 1014.9
20260506220005 51 75 2.0 3.0 0.00 0.00 0.00 74 1014.7
20260506215006 51 78 2.0 4.0 0.00 0.00 0.00 74 1014.7
20260506214005 51 78 2.0 3.0 0.00 0.00 0.00 73 1014.7
20260506213005 51 77 2.0 3.0 0.00 0.00 0.00 73 1014.8
20260506212005 51 67 2.0 3.0 0.00 0.00 0.00 73 1014.9
20260506211010 51 66 2.0 4.0 0.00 0.00 0.00 73 1014.7
20260506210007 51 61 2.0 4.0 0.00 0.00 0.00 73 1014.6
20260506203004 52 61 4.0 6.0 0.00 0.00 0.00 71 1014.6
20260506202005 52 62 4.0 6.0 0.00 0.00 0.00 70 1014.6
20260506201004 52 62 5.0 8.0 0.00 0.00 0.00 69 1014.4
20260506200004 52 56 4.0 7.0 0.00 0.00 0.00 68 1014.2
20260506195004 52 60 6.0 10.0 0.00 0.00 0.00 68 1014.1
20260506194005 53 67 5.0 8.0 0.00 0.00 0.00 67 1014.1
20260506193005 53 69 5.0 9.0 0.00 0.00 0.00 67 1014.1
20260506192005 53 68 6.0 9.0 0.00 0.00 0.00 67 1013.9
20260506191006 53 67 7.0 9.0 0.00 0.00 0.00 67 1013.9
20260506190006 53 58 7.0 12.0 0.00 0.00 0.00 66 1013.9
20260506185005 54 54 7.0 11.0 0.00 0.00 0.00 63 1013.7
20260506184006 54 52 6.0 10.0 0.00 0.00 0.00 62 1013.7
20260506183006 54 47 7.0 10.0 0.00 0.00 0.00 61 1013.6
20260506181005 55 39 6.0 11.0 0.00 0.00 0.00 59 1013.4
20260506180006 55 34 6.0 10.0 0.00 0.00 0.00 58 1013.3
20260506172005 57 15 6.0 10.0 0.00 0.00 0.00 57 1013.1
20260506171005 57 10 5.0 9.0 0.00 0.00 0.00 56 1013.0
20260506170005 57 22 4.0 6.0 0.00 0.00 0.00 56 1012.9
20260506165005 57 36 5.0 9.0 0.00 0.00 0.00 56 1013.0
20260506164005 57 24 4.0 7.0 0.00 0.00 0.00 56 1013.0
20260506163005 56 22 5.0 8.0 0.00 0.00 0.00 55 1012.8
20260506161006 56 356 5.0 10.0 0.00 0.00 0.00 57 1013.1
20260506155006 56 5 5.0 10.0 0.00 0.00 0.00 56 1013.1
20260506154006 56 5 6.0 10.0 0.00 0.00 0.00 55 1013.1
20260506153006 56 6 8.0 12.0 0.00 0.00 0.00 54 1013.1
20260506152005 56 3 5.0 10.0 0.00 0.00 0.00 51 1013.2
20260506150006 57 13 7.0 12.0 0.00 0.00 0.00 49 1012.9
20260506145005 58 20 7.0 11.0 0.00 0.00 0.00 48 1013.0
20260506144005 58 28 6.0 11.0 0.00 0.00 0.00 46 1012.8
20260506142006 59 15 8.0 11.0 0.00 0.00 0.00 47 1012.8
20260506140006 58 27 7.0 12.0 0.00 0.00 0.00 45 1012.7
20260506135005 59 28 7.0 11.0 0.00 0.00 0.00 44 1012.7
20260506134005 59 28 8.0 11.0 0.00 0.00 0.00 44 1012.7
20260506133006 60 32 10.0 13.0 0.00 0.00 0.00 43 1012.7
20260506132005 60 23 9.0 13.0 0.00 0.00 0.00 44 1012.6
20260506131006 59 15 10.0 14.0 0.00 0.00 0.00 44 1012.7
20260506130007 60 10 9.0 18.0 0.00 0.00 0.00 45 1012.8
20260506125005 59 4 9.0 15.0 0.00 0.00 0.00 45 1012.8
20260506124006 60 359 10.0 15.0 0.00 0.00 0.00 44 1012.8
20260506123006 60 1 12.0 22.0 0.00 0.00 0.00 44 1012.8
20260506122005 60 2 8.0 17.0 0.00 0.00 0.00 45 1012.9
20260506121005 59 3 11.0 13.0 0.00 0.00 0.00 45 1012.8
20260506120005 60 6 12.0 17.0 0.00 0.00 0.00 44 1013.1
20260506115005 60 2 11.0 17.0 0.00 0.00 0.00 45 1013.0
20260506112006 61 351 11.0 17.0 0.00 0.00 0.00 46 1013.0
20260506111006 61 357 11.0 19.0 0.00 0.00 0.00 46 1012.9
20260506110006 60 355 11.0 17.0 0.00 0.00 0.00 46 1012.9
20260506104005 59 348 9.0 15.0 0.00 0.00 0.00 51 1013.0
20260506103005 57 343 9.0 16.0 0.00 0.00 0.00 51 1012.9
20260506101006 58 355 8.0 12.0 0.00 0.00 0.00 54 1013.0
20260506100006 57 353 10.0 15.0 0.00 0.00 0.00 54 1013.0
20260506095006 59 354 8.0 12.0 0.00 0.00 0.00 54 1013.0
20260506094006 58 9 7.0 11.0 0.00 0.00 0.00 55 1013.1
20260506093006 56 6 8.0 11.0 0.00 0.00 0.00 58 1013.1
20260506092006 56 2 7.0 11.0 0.00 0.00 0.00 57 1013.1
20260506091006 55 3 8.0 11.0 0.00 0.00 0.00 61 1012.9
20260506090006 53 353 9.0 13.0 0.00 0.00 0.00 65 1012.9
20260506085006 53 352 7.0 11.0 0.00 0.00 0.00 67 1013.0
20260506084006 52 358 8.0 14.0 0.00 0.00 0.00 65 1013.0
20260506083005 51 357 10.0 19.0 0.00 0.00 0.00 64 1013.0
20260506082006 51 357 10.0 15.0 0.00 0.00 0.00 65 1013.0
20260506081006 51 351 10.0 14.0 0.00 0.00 0.00 66 1012.9
20260506073006 51 4 7.0 10.0 0.00 0.00 0.00 69 1012.7
20260506061006 52 24 4.0 6.0 0.00 0.00 0.00 75 1012.4
20260506051006 47 6 8.0 12.0 0.00 0.00 0.00 81 1012.3
20260506045006 47 9 3.0 5.0 0.00 0.00 0.00 79 1012.2
20260506044006 47 13 3.0 4.0 0.00 0.00 0.00 79 1012.1